Find Starlink 34676

NORAD ID: 64853 Int'l Des: 2025-152 Owner: SPXS Country: US Constellation: starlink operational
LEOCIRCULARRETROGRADESSO

当前视图

正在加载3D地球...

About Starlink 34676

Starlink 34676 (NORAD 64853) is a starlink constellation satellite (v2 mini) launched Jul 19, 2025 by SPXS of US. It operates in LEO, CIRCULAR, RETROGRADE, SSO orbit with a mass of 575.00 kg.

即将过境

Passes for default location (London). Set your location on the main map for personalized predictions.

高度历史

Loading altitude history...

两行轨道根数

1 64853U 25152M 26263.37986754 .00011311 00000-0 35213-3 0 9993
2 64853 97.2846 113.9098 0001913 94.1135 266.0326 15.33447735 64807
Epoch: Sep 20, 2026 • Age: 17 hours

当前状态

高度 470.0 km
远地点 / 近地点 N/A
速度 7.64 km/s
星下点 37.65°N, 71.38°E
发射日期 Jul 19, 2025
运行时间 1.1 years
类型 internet

技术详情

分类 Payload
质量 575.00 kg
干质量 530.00 kg
长度 0.30 m
跨度 29.00 m
形状 ? Box + pan
制造商 SPXS
平台类型 Starlink V2MO
阶段状态 In Orbit
所有者/国家 SPXS/US

Most Searched